Regional Weather Roundup
Issued by NWS Upton, NY

Home | Current Version | Previous Version | Text Only | Print | Product List | Glossary On
Versions: 1 2 3 4 5 6 7 8 9 10 11 12 13 14 15 16 17 18 19 20 21 22 23 24 25 26 27 28 29 30 31 32 33 34 35 36 37 38 39 40 41 42 43 44 45 46 47 48 49 50
000
ASUS41 KOKX 262105
RWROKX

REGIONAL WEATHER ROUNDUP
NATIONAL WEATHER SERVICE NEW YORK NY
400 PM EST MON JAN 26 2015

NOTE: "FAIR" INDICATES FEW OR NO CLOUDS BELOW 12,000 FEET WITH NO
SIGNIFICANT WEATHER AND/OR OBSTRUCTIONS TO VISIBILITY.

NYZ071-072-176-178-NJZ106-104-262200-
NEW YORK CITY METRO AREA


CITY           SKY/WX    TMP DP  RH WIND       PRES   REMARKS
CENTRAL PARK   SNOW      24  20  84 NE12G28   29.86F VSB<1/4 WCI  13
LAGUARDIA APRT SNOW      24  22  91 NE15G22   29.85F VSB 1/4 WCI  11
KENNEDY INTL   LGT SNOW  26  20  77 N20       29.83F WCI  12
NEWARK/LIBERTY SNOW      22  20  92 N17       29.84F VSB 1/4 WCI   8
BRNX BOT. GARD   N/A    N/A N/A N/A E18       29.86F
TETERBORO      LGT SNOW  23  19  86 N10       29.85F VSB 3/4 WCI  12
$$

NYZ177-179-078>081-262200-
LONG ISLAND NEW YORK

CITY           SKY/WX    TMP DP  RH WIND       PRES   REMARKS
FARMINGDALE    LGT SNOW  27  24  89 NE16G25   29.83F VSB 3/4 WCI  15
ISLIP          LGT SNOW  28  24  85 NE20G30   29.82S VSB 1   WCI  15
SHIRLEY        LGT SNOW  28  24  85 VRB7G20   29.85S VSB 1   WCI  21
WESTHAMPTON    LGT SNOW  29  25  85 NE24G32   29.85F VSB 3/4 WCI  15
MONTAUK POINT    N/A     32  28  85 NE16G29   29.88F WCI  21
$$

NYZ052-065-067-262200-
HUDSON VALLEY

CITY           SKY/WX    TMP DP  RH WIND       PRES   REMARKS
WHITE PLAINS   LGT SNOW  23  19  85 NE13G20   29.84F VSB 3/4 WCI  11
NEWBURGH       LGT SNOW  18  16  93 NE9       29.92S FOG     WCI   6
MONTGOMERY     LGT SNOW  19  13  77 NE15      29.90F WCI   5
POUGHKEEPSIE   LGT SNOW  19  14  81 N9        29.95R VSB 3/4 WCI   8
ALBANY         FLURRIES  18   1  47 N9        30.02F WCI   7
$$

NJZ001-105-106-008-010-013-015-019>022-104-262200-
NEW JERSEY

CITY           SKY/WX    TMP DP  RH WIND       PRES   REMARKS
NEWARK/LIBERTY SNOW      22  20  92 N17       29.84F VSB 1/4 WCI   8
TETERBORO      LGT SNOW  23  19  86 N10       29.85F VSB 3/4 WCI  12
CALDWELL       LGT SNOW  22  18  85 NE9       29.86F VSB 1   WCI  12
MORRISTOWN     LGT SNOW  21  19  93 NE12G18   29.85F VSB 1   WCI   9
SOMERVILLE     LGT SNOW  23  17  78 N10G20    29.81F WCI  12
SUSSEX         LGT SNOW  17  12  80 NE10G21   29.87R VSB 1   WCI   5
ANDOVER          N/A     16  13  88 MISG      29.85F
TRENTON        LGT SNOW  23  18  81 NE17G25   29.79S WCI   9
MILLVILLE      CLOUDY    32  28  85 NE18G29   29.68F WCI  20
ATLANTIC CITY  CLOUDY    32  30  92 NE21G33   29.69S FOG     WCI  20
WRIGHTSTOWN    CLOUDY    26  23  89 NE16      29.76R BLWGSNOWWCI  13
TOMS RIVER     CLOUDY    28  25  86 NE16G23   29.77S VSB 1   WCI  17
BELMAR         NOT AVBL
$$

PAZ047>061-062-071-262200-
EASTERN PENNSYLVANIA

CITY           SKY/WX    TMP DP  RH WIND       PRES   REMARKS
PHILADELPHIA   FLURRIES  27  21  78 NE24G31   29.78R WCI  12
ALLENTOWN      LGT SNOW  19  14  79 NE16      29.82F WCI   5
SCRANTON       LGT SNOW  22  14  71 E9        29.81S WCI  12
$$

CTZ002-004>006-009-010-012-RIZ004-006-007-MAZ004-011-015-262200-
SOUTHERN NEW ENGLAND
 IN CT

CITY           SKY/WX    TMP DP  RH WIND       PRES   REMARKS
BRADLEY INTL   LGT SNOW  22  15  75 N16G25    29.98F WCI   8
HARTFORD       LGT SNOW  23  18  81 N14G22    29.98F VSB 1   WCI  11
DANBURY        SNOW      20  14  77 NE14G23   29.91S VSB 1/2 WCI   7
WTRBRY/OXFORD  NOT AVBL
BRIDGEPORT     LGT SNOW  23  19  85 NE20G31   29.90R FOG     WCI   8
MERIDEN        LGT SNOW  20  15  81 N9G20     29.94F VSB 3/4 WCI   9
NEW HAVEN      LGT SNOW  22  17  81 N16       29.91R WCI   8
CHESTER        LGT SNOW  23  21  93 NE9G18    29.90S VSB 1   WCI  13
GROTON         LGT SNOW  26  23  88 NE17G26   29.91F VSB 1   WCI  13
WILLIMANTIC    LGT SNOW  22  16  78 NE9       29.97F WCI  12

 IN RI

CITY           SKY/WX    TMP DP  RH WIND       PRES   REMARKS
PROVIDENCE     LGT SNOW  25  23  92 N9        29.97F VSB 1   WCI  15
BLOCK ISLAND   CLOUDY    30  27  86 NE25G36   29.88F VSB 1   WCI  16
WESTERLY       LGT SNOW  27  24  89 NE9G18    29.93S VSB 1   WCI  18

 IN MA

CITY           SKY/WX    TMP DP  RH WIND       PRES   REMARKS
BOSTON         FLURRIES  29  21  72 NE20G25   30.04F WCI  16
WORCESTER      LGT SNOW  17  12  80 NE13      29.94F WCI   4
WESTFIELD      FLURRIES  21   7  54 N10       30.00S WCI  10
PROVINCETOWN   CLOUDY    32  23  69 NE21G29   30.01F WCI  20
NANTUCKET      LGT SNOW  33  29  85 E21G31    29.91F VSB 3/4 WCI  21
$$

ANZ330-335-338-340-345-350-353-355-262200-
COASTAL MARINE OBSERVATIONS


STATION/POSITION TIME  SKY/WX   TEMP    WIND        PRES    VSBY  WAVE
                                AIR SEA DIR/SP/G                  HT/PER
                 (UTC)          (F)     (DEG/KT/KT) (MB)    (MI)  (FT/S)
NY HARB ENTRANCE 2100            31 43   40/ 27/ 33 1007.5          8/ 7
4S FIRE IS       2100               38                N/A           8/ 7
20S FIRE ISLAND  2000               41              1007.5         11/ 8
23SW MTP         2100                                 N/A          11/ 7
HUDSON CANYON    NOT AVBL
EXECUTION ROCKS  2100            26 35   40/ 21/ 29   N/A
WESTERN LI SOUND 2100            26      60/ 21/ 27   N/A           3/ 5
CENTRAL LI SOUND 2000            27 36   50/ 23/ 29   N/A           4/ 4
EASTERN LI SOUND NOT AVBL
ROBBINS REEF     2100            25      30/ 19/ 24 1009.4
$$


>>>>>>>>>>>>>>>>>>>>>>>>>>>> KEY <<<<<<<<<<<<<<<<<<<<<<<<<<<
>                                                          <
>     SKY/WX - SKY CONDITION/PRESENT WEATHER               <
>     TMP    - TEMPERATURE IN FAHRENHEIT                   <
>     DP     - DEWPOINT IN FAHRENHEIT                      <
>     RH     - RELATIVE HUMIDITY IN PERCENT                <
>     WIND   - DIRECTION AND SPEED IN MPH                  <
>     PRES   - MEAN SEA LEVEL PRESSURE IN INCHES OF HG     <
>     WCI    - WIND CHILL INDEX                            <
>     VSB    - VISIBILITY IN MILES                         <
>     HX     - HEAT INDEX                                  <
>     TC     - TEMPERATURE IN CELSIUS                      <
>     VRB    - VARIABLE WIND DIRECTION                     <
>                                                          <
>>>>>>>>>>>>>>>>>>>>>>>>>>>> KEY <<<<<<<<<<<<<<<<<<<<<<<<<<<





USA.gov is the U.S. government's official web portal to all federal, state and local government web resources and services.